#timestamp,LO_Frequency,Hit,StdDev 
1683324015.5,286046999.7,N
1683324035.3,286047002.5,N
1683324055.2,286047002.0,N
1683324075.0,286047004.4,Y
1683324075.9,286047004.4,P
1683324095.8,286047002.0,N
1683324115.6,286047002.0,N
1683324135.4,286047001.3,N
1683324155.3,286047000.2,N
1683324175.1,286047000.9,N
1683324195.9,286047002.7,N
1683324215.7,286047000.0,N
1683324235.6,286046999.7,N
1683324255.4,286047000.0,N
1683324275.2,286047000.6,N
1683324295.1,286047000.5,N
1683324296.0,286047000.5,N
1683324315.8,286047000.9,N
1683324335.6,286046999.8,N
1683324355.5,286046999.7,N
1683324375.3,286047000.6,N
1683324395.2,286047000.4,N
1683324415.9,286047001.9,N
1683324435.7,286047002.1,N
1683324455.6,286047002.5,N
1683324475.4,286047002.5,N
1683324495.3,286047001.9,N
1683324515.1,286047002.8,N
1683324516.0,286047002.8,N
1683324535.8,286047000.0,N
1683324555.7,286047000.2,N
1683324575.5,286047001.8,N
1683324595.3,286047001.8,N
1683324615.2,286047000.4,N
1683324635.0,286047000.6,N
1683324635.9,286047000.6,N
1683324655.8,286047000.5,N
1683324675.6,286047001.0,N
1683324695.4,286047001.0,N
1683324715.3,286046998.2,N
1683324735.1,286047000.7,N
1683324755.9,286047000.2,N
1683324775.7,286047000.9,N
1683324795.5,286047001.0,N
1683324815.4,286047000.6,N
1683324835.2,286046998.1,N
1683324855.0,286047001.2,N
1683324856.0,286047001.2,N
1683324875.8,286047000.7,N
1683324895.6,286047000.3,N
1683324915.5,286047000.5,N
1683324935.3,286047000.9,N
1683324955.1,286047000.2,N
1683324975.9,286047000.3,N
1683324995.7,286047000.4,N
1683325015.6,286047000.7,N
1683325035.4,286047000.5,N
1683325055.2,286046999.9,N
1683325075.1,286046999.9,N
1683325076.0,286046999.9,N
1683325095.8,286047000.9,N
1683325115.7,286047001.0,N
1683325135.5,286047000.1,N
1683325155.3,286047000.1,N
1683325175.2,286047000.6,N
1683325195.0,286047002.5,Y
1683325195.9,286047002.5,P
1683325215.8,286047000.1,N
1683325235.6,286047000.9,N
1683325255.4,286047001.1,N
1683325275.3,286047000.0,N
1683325295.1,286047000.2,N
1683325296.0,286047000.2,N
1683325315.8,286047000.6,N
1683325335.7,286046998.1,N
1683325355.5,286046998.7,N
1683325375.3,286046998.3,N
1683325395.2,286047000.7,N
1683325415.0,286047000.9,N
1683325415.9,286047000.9,N
1683325435.8,286047002.1,N
1683325455.6,286047002.3,N
1683325475.4,286047002.4,N
1683325495.3,286047002.6,N
1683325515.1,286047000.0,N
1683325535.9,286046998.1,N
1683325555.7,286046998.2,N
1683325575.5,286047001.2,N
1683325595.4,286047001.1,N
1683325615.2,286047001.2,N
1683325635.0,286046998.5,N
1683325635.9,286046998.5,N
1683325655.8,286046998.2,N
1683325675.6,286047000.4,N
1683325695.5,286047000.5,N
1683325715.3,286046998.5,N
1683325735.1,286047000.8,N
1683325755.9,286046998.1,N
1683325775.7,286046998.5,N
1683325795.5,286047001.2,N
1683325815.4,286047000.7,N
1683325835.2,286046998.1,N
1683325855.0,286046998.2,N
1683325856.0,286046998.2,N
1683325875.8,286046999.1,N
1683325895.6,286046996.6,N
1683325915.5,286046999.1,N
1683325935.3,286046998.8,N
1683325955.1,286046998.8,N
1683325975.9,286046999.5,N
1683325995.7,286046998.4,N
1683326015.6,286046998.5,N
1683326035.4,286046998.4,N
1683326055.2,286046998.1,N
1683326075.1,286047000.9,N
1683326076.0,286047000.9,N
1683326095.8,286047000.7,N
1683326115.6,286046998.8,N
1683326135.5,286046998.3,N
1683326155.3,286047000.7,N
1683326175.2,286046998.6,N
1683326195.9,286046998.1,N
1683326215.7,286047000.7,N
1683326235.6,286046999.3,N
1683326255.4,286046999.4,N
1683326275.2,286046999.5,N
1683326295.1,286046999.5,N
1683326296.0,286046999.5,N
1683326315.8,286046998.8,N
1683326335.7,286046999.8,N
1683326355.5,286047001.8,N
1683326375.3,286047004.1,Y
1683326395.2,286047004.1,P
1683326415.0,286047001.7,N
1683326415.9,286047001.7,N
1683326435.7,286047002.1,N
1683326455.6,286047002.7,N
1683326475.4,286047002.8,N
1683326495.3,286047002.6,N
1683326515.1,286046999.8,N
1683326516.0,286046999.8,N
1683326535.9,286047002.8,N
1683326555.7,286047002.5,N
1683326575.6,286047004.3,Y
1683326595.4,286046999.7,P
1683326615.2,286047000.6,N
1683326635.1,286047000.8,N
1683326636.0,286047000.8,N
1683326655.8,286047000.5,N
1683326675.7,286047002.8,Y
1683326695.5,286046998.4,P
1683326715.3,286046998.4,N
1683326735.2,286046999.2,N
1683326755.0,286046999.0,N
1683326755.9,286046999.0,N
1683326775.7,286046998.1,N
1683326795.6,286046998.8,N
1683326815.4,286046998.1,N
1683326835.3,286046998.2,N
1683326855.1,286046998.2,N
1683326856.0,286046998.2,N
1683326875.8,286047001.2,N
1683326895.7,286047000.7,N
1683326915.5,286047000.6,N
1683326935.4,286046999.3,N
1683326955.2,286046999.4,N
1683326975.0,286046999.4,N
1683326975.9,286046999.4,N
1683326995.8,286046998.1,N
1683327015.6,286047001.1,N
1683327035.4,286047000.7,N
1683327055.3,286047001.2,N
1683327075.1,286046999.0,N
1683327095.9,286046998.7,N
1683327115.7,286046999.4,N
1683327135.5,286046998.9,N
1683327155.4,286046998.4,N
1683327175.2,286046999.5,N
1683327195.0,286046999.5,N
1683327195.9,286046999.5,N
1683327215.8,286046996.7,Y
1683327235.6,286046999.2,P
1683327255.5,286046999.2,P
1683327275.3,286046996.5,P
1683327295.1,286046996.5,N
1683327315.9,286046997.1,N
1683327335.7,286046997.8,N
1683327355.6,286046997.5,N
1683327375.4,286046997.8,N
1683327395.2,286046997.5,N
1683327415.1,286046995.3,Y
1683327416.0,286046995.3,P
1683327435.8,286046996.7,N
1683327455.6,286046997.7,N
1683327475.5,286046996.2,Y
1683327495.3,286046999.6,P
1683327515.2,286046999.6,N
1683327535.9,286046999.3,N
1683327555.7,286046999.2,N
1683327575.6,286046996.8,Y
1683327595.4,286046999.4,P
